Schneifelwetter: Wetterstation Hallschlag, 537 m . NN
Wetterdaten: Mittwoch, 08.11.2006
Datum Zeit Temp. A. Temp. 2 Feuchte A. Luftdruck Regen Wind Richtung Richtung Sonnenschein Helligkeit T Regen Taupunkt Windchill
08.11.2006 00:09 2,3 C 1,1 C 89 % 1018 hPa 0,0 l/m 19,9 km/h (4 Bft) W45 270 0 min 0 lux 0,00 min 0,7 C -6,6 C
08.11.2006 00:24 2,0 C 1,1 C 89 % 1018 hPa 0,0 l/m 20,3 km/h (4 Bft) W45 265 0 min 0 lux 0,00 min 0,4 C -7,2 C
08.11.2006 00:39 1,8 C 0,9 C 89 % 1018 hPa 0,0 l/m 17,6 km/h (3 Bft) W45 260 0 min 0 lux 0,00 min 0,2 C -6,2 C
08.11.2006 00:54 1,5 C 1,0 C 90 % 1018 hPa 0,0 l/m 24,8 km/h (4 Bft) W45 270 0 min 0 lux 0,00 min 0,0 C -9,6 C
08.11.2006 01:09 1,4 C 0,9 C 91 % 1018 hPa 0,0 l/m 27,8 km/h (4 Bft) W22.5 265 0 min 0 lux 0,00 min 0,1 C -10,8 C
08.11.2006 01:24 1,2 C 0,8 C 91 % 1018 hPa 0,0 l/m 28,2 km/h (4 Bft) W22.5 260 0 min 0 lux 0,00 min -0,1 C -11,2 C
08.11.2006 01:39 1,2 C 0,7 C 91 % 1018 hPa 0,0 l/m 31,7 km/h (5 Bft) W22.5 265 0 min 0 lux 0,00 min -0,1 C -12,2 C
08.11.2006 01:54 1,2 C 0,7 C 92 % 1018 hPa 0,0 l/m 26,5 km/h (4 Bft) W22.5 260 0 min 0 lux 0,00 min 0,0 C -10,6 C
08.11.2006 02:09 1,2 C 0,7 C 92 % 1018 hPa 0,0 l/m 27,4 km/h (4 Bft) W45 265 0 min 0 lux 0,00 min 0,0 C -10,9 C
08.11.2006 02:24 1,2 C 0,7 C 92 % 1018 hPa 0,0 l/m 30,2 km/h (5 Bft) W45 260 0 min 0 lux 0,00 min 0,0 C -11,8 C
08.11.2006 02:39 1,1 C 0,5 C 92 % 1018 hPa 0,0 l/m 28,8 km/h (4 Bft) W22.5 265 0 min 0 lux 0,00 min -0,1 C -11,5 C
08.11.2006 02:54 1,1 C 0,5 C 92 % 1018 hPa 0,0 l/m 27,4 km/h (4 Bft) W22.5 260 0 min 0 lux 0,00 min -0,1 C -11,1 C
08.11.2006 03:09 1,1 C 0,6 C 92 % 1018 hPa 0,0 l/m 34,5 km/h (5 Bft) W22.5 260 0 min 0 lux 0,00 min -0,1 C -13,1 C
08.11.2006 03:24 1,1 C 0,6 C 92 % 1018 hPa 0,0 l/m 31,7 km/h (5 Bft) W22.5 260 0 min 0 lux 0,00 min -0,1 C -12,3 C
08.11.2006 03:39 1,2 C 0,6 C 92 % 1018 hPa 0,0 l/m 27,5 km/h (4 Bft) W45 260 0 min 0 lux 0,00 min 0,0 C -10,9 C
08.11.2006 03:54 1,2 C 0,7 C 92 % 1018 hPa 0,0 l/m 34,0 km/h (5 Bft) W22.5 260 0 min 0 lux 0,00 min 0,0 C -12,8 C
08.11.2006 04:09 1,3 C 0,8 C 92 % 1018 hPa 0,0 l/m 25,6 km/h (4 Bft) W45 270 0 min 0 lux 0,00 min 0,1 C -10,2 C
08.11.2006 04:24 1,5 C 1,0 C 92 % 1018 hPa 0,0 l/m 28,1 km/h (4 Bft) W22.5 260 0 min 0 lux 0,00 min 0,3 C -10,7 C
08.11.2006 04:39 1,4 C 0,7 C 92 % 1018 hPa 0,0 l/m 27,3 km/h (4 Bft) W45 260 0 min 0 lux 0,00 min 0,2 C -10,6 C
08.11.2006 04:54 1,2 C 0,5 C 92 % 1018 hPa 0,0 l/m 25,1 km/h (4 Bft) W22.5 270 0 min 0 lux 0,00 min 0,0 C -10,1 C
08.11.2006 05:09 1,0 C 0,2 C 92 % 1018 hPa 0,0 l/m 24,0 km/h (4 Bft) W22.5 265 0 min 0 lux 0,00 min -0,2 C -10,0 C
08.11.2006 05:24 0,8 C 0,3 C 92 % 1018 hPa 0,0 l/m 27,2 km/h (4 Bft) W-SW45 255 0 min 0 lux 0,00 min -0,3 C -11,4 C
08.11.2006 05:39 1,2 C 1,0 C 92 % 1019 hPa 0,0 l/m 35,9 km/h (5 Bft) W-SW22.5 255 0 min 0 lux 0,00 min 0,0 C -13,3 C
08.11.2006 05:54 1,8 C 1,4 C 93 % 1019 hPa 0,0 l/m 28,9 km/h (5 Bft) W-SW45 255 0 min 0 lux 0,00 min 0,8 C -10,6 C
08.11.2006 06:09 2,0 C 1,5 C 93 % 1019 hPa 0,0 l/m 28,9 km/h (5 Bft) W22.5 260 0 min 0 lux 0,00 min 1,0 C -10,3 C
08.11.2006 06:24 2,1 C 1,6 C 93 % 1019 hPa 0,0 l/m 22,2 km/h (4 Bft) W-SW67.5 255 0 min 0 lux 0,00 min 1,1 C -7,8 C
08.11.2006 06:39 2,1 C 1,5 C 93 % 1019 hPa 0,0 l/m 24,6 km/h (4 Bft) W22.5 260 0 min 0 lux 0,00 min 1,1 C -8,7 C
08.11.2006 06:54 1,8 C 1,2 C 92 % 1019 hPa 0,0 l/m 18,0 km/h (3 Bft) W-SW22.5 255 0 min 0 lux 0,00 min 0,6 C -6,4 C
08.11.2006 07:09 1,5 C 0,9 C 92 % 1019 hPa 0,0 l/m 15,1 km/h (3 Bft) W22.5 265 0 min 0 lux 0,00 min 0,3 C -5,2 C
08.11.2006 07:24 1,5 C 0,8 C 93 % 1019 hPa 0,0 l/m 16,0 km/h (3 Bft) W-SW45 255 0 min 324 lux 0,00 min 0,5 C -5,7 C
08.11.2006 07:39 1,4 C 0,7 C 93 % 1019 hPa 0,0 l/m 11,5 km/h (2 Bft) W-SW22.5 255 0 min 695 lux 0,00 min 0,4 C -3,0 C
08.11.2006 08:00 1,5 C 0,8 C 93 % 1019 hPa 0,0 l/m 13,8 km/h (3 Bft) W22.5 270 0 min 1,28 klux 0,00 min 0,5 C -4,4 C
08.11.2006 08:15 1,7 C 0,8 C 93 % 1019 hPa 0,0 l/m 12,6 km/h (3 Bft) W45 275 0 min 3,58 klux 0,00 min 0,7 C -3,4 C
08.11.2006 08:30 1,7 C 0,9 C 93 % 1019 hPa 0,0 l/m 17,9 km/h (3 Bft) W22.5 270 0 min 12,2 klux 0,00 min 0,7 C -6,5 C
08.11.2006 08:45 2,2 C 1,3 C 93 % 1019 hPa 0,0 l/m 24,0 km/h (4 Bft) W-SW22.5 255 0 min 17,6 klux 0,00 min 1,2 C -8,4 C
08.11.2006 09:00 2,9 C 2,1 C 93 % 1019 hPa 0,0 l/m 24,5 km/h (4 Bft) W22.5 260 0 min 22,2 klux 0,00 min 1,9 C -7,6 C
08.11.2006 09:15 3,7 C 2,7 C 93 % 1019 hPa 0,0 l/m 30,0 km/h (5 Bft) W22.5 265 0 min 24,6 klux 0,00 min 2,7 C -8,2 C
08.11.2006 09:31 4,2 C 3,4 C 92 % 1019 hPa 0,0 l/m 30,2 km/h (5 Bft) W22.5 260 0 min 28,8 klux 0,00 min 3,0 C -7,6 C
08.11.2006 09:45 4,7 C 4,1 C 91 % 1019 hPa 0,0 l/m 30,6 km/h (5 Bft) W-SW45 255 0 min 19,0 klux 0,00 min 3,4 C -7,0 C
08.11.2006 10:00 4,7 C 4,4 C 90 % 1019 hPa 0,0 l/m 28,0 km/h (4 Bft) W-SW22.5 255 0 min 16,8 klux 0,00 min 3,2 C -6,3 C
08.11.2006 10:15 5,2 C 4,8 C 90 % 1020 hPa 0,0 l/m 32,5 km/h (5 Bft) W45 260 0 min 26,0 klux 0,00 min 3,7 C -6,7 C
08.11.2006 10:30 5,4 C 5,7 C 89 % 1020 hPa 0,0 l/m 32,7 km/h (5 Bft) W-SW22.5 250 15 min 51,2 klux 0,00 min 3,7 C -6,5 C
08.11.2006 10:45 5,9 C 6,7 C 89 % 1020 hPa 0,0 l/m 31,4 km/h (5 Bft) W-SW45 250 15 min 51,7 klux 0,00 min 4,2 C -5,5 C
08.11.2006 11:00 6,1 C 7,5 C 87 % 1020 hPa 0,0 l/m 37,3 km/h (5 Bft) W-SW45 255 15 min 52,3 klux 0,00 min 4,1 C -6,4 C
08.11.2006 11:15 6,3 C 8,5 C 87 % 1020 hPa 0,0 l/m 34,1 km/h (5 Bft) W45 265 15 min 57,1 klux 0,00 min 4,3 C -5,5 C
08.11.2006 11:30 6,5 C 9,0 C 87 % 1020 hPa 0,0 l/m 42,6 km/h (6 Bft) W-SW22.5 255 15 min 57,8 klux 0,00 min 4,5 C -6,7 C
08.11.2006 11:45 6,8 C 9,9 C 87 % 1020 hPa 0,0 l/m 38,3 km/h (5 Bft) W45 260 15 min 59,5 klux 0,00 min 4,8 C -5,6 C
08.11.2006 12:00 7,4 C 10,8 C 85 % 1020 hPa 0,0 l/m 37,8 km/h (5 Bft) W45 260 15 min 60,3 klux 0,00 min 5,0 C -4,6 C
08.11.2006 12:15 7,9 C 11,3 C 84 % 1020 hPa 0,0 l/m 39,7 km/h (6 Bft) W22.5 260 15 min 60,7 klux 0,00 min 5,4 C -4,2 C
08.11.2006 12:30 8,4 C 11,8 C 83 % 1020 hPa 0,0 l/m 36,9 km/h (5 Bft) W-SW22.5 245 15 min 60,8 klux 0,00 min 5,7 C -3,0 C
08.11.2006 12:45 8,8 C 12,3 C 83 % 1020 hPa 0,0 l/m 35,6 km/h (5 Bft) W-SW22.5 250 15 min 64,1 klux 0,00 min 6,1 C -2,2 C
08.11.2006 13:00 9,2 C 12,7 C 82 % 1019 hPa 0,0 l/m 36,4 km/h (5 Bft) W22.5 260 15 min 64,8 klux 0,00 min 6,3 C -1,7 C
08.11.2006 13:15 9,5 C 12,7 C 81 % 1019 hPa 0,0 l/m 48,9 km/h (6 Bft) W45 260 15 min 61,7 klux 0,00 min 6,4 C -3,0 C
08.11.2006 13:30 9,8 C 12,4 C 81 % 1019 hPa 0,0 l/m 44,3 km/h (6 Bft) W22.5 265 15 min 55,9 klux 0,00 min 6,7 C -2,0 C
08.11.2006 13:45 9,8 C 11,3 C 82 % 1019 hPa 0,0 l/m 28,8 km/h (4 Bft) W-SW45 250 0 min 14,7 klux 0,00 min 6,9 C 0,6 C
08.11.2006 14:00 9,8 C 10,5 C 82 % 1019 hPa 0,0 l/m 43,2 km/h (6 Bft) W-SW45 250 0 min 13,8 klux 0,00 min 6,9 C -1,8 C
08.11.2006 14:15 9,9 C 10,1 C 82 % 1019 hPa 0,0 l/m 46,6 km/h (6 Bft) W-SW45 255 0 min 13,5 klux 0,00 min 7,0 C -2,1 C
08.11.2006 14:31 9,9 C 9,9 C 82 % 1019 hPa 0,0 l/m 44,7 km/h (6 Bft) W67.5 260 0 min 15,8 klux 0,00 min 7,0 C -1,9 C
08.11.2006 14:45 9,8 C 9,7 C 82 % 1019 hPa 0,0 l/m 44,5 km/h (6 Bft) W45 260 0 min 11,3 klux 0,00 min 6,9 C -2,0 C
08.11.2006 15:00 9,8 C 9,6 C 83 % 1019 hPa 0,0 l/m 40,1 km/h (6 Bft) W-SW22.5 255 0 min 11,8 klux 0,00 min 7,1 C -1,4 C
08.11.2006 15:15 9,5 C 9,3 C 83 % 1019 hPa 0,0 l/m 38,0 km/h (5 Bft) W-SW45 255 0 min 9,3 klux 0,00 min 6,8 C -1,5 C
08.11.2006 15:30 9,2 C 9,0 C 84 % 1020 hPa 0,0 l/m 40,1 km/h (6 Bft) W-SW22.5 250 0 min 5,74 klux 0,00 min 6,6 C -2,3 C
08.11.2006 15:45 8,8 C 8,6 C 85 % 1020 hPa 0,0 l/m 37,1 km/h (5 Bft) W-SW45 240 0 min 5,29 klux 0,00 min 6,4 C -2,4 C
08.11.2006 16:00 8,4 C 8,3 C 86 % 1020 hPa 0,0 l/m 40,2 km/h (6 Bft) W-SW45 250 0 min 3,76 klux 0,00 min 6,2 C -3,5 C
08.11.2006 16:15 8,2 C 7,9 C 86 % 1020 hPa 0,0 l/m 36,0 km/h (5 Bft) W-SW45 245 0 min 3,39 klux 0,00 min 6,0 C -3,1 C
08.11.2006 16:30 7,9 C 7,6 C 86 % 1020 hPa 0,0 l/m 33,2 km/h (5 Bft) W-SW45 255 0 min 1,46 klux 0,00 min 5,7 C -3,0 C
08.11.2006 16:45 7,6 C 7,2 C 86 % 1020 hPa 0,0 l/m 32,7 km/h (5 Bft) W-SW67.5 245 0 min 1,35 klux 0,00 min 5,4 C -3,3 C
08.11.2006 17:00 7,2 C 6,8 C 86 % 1020 hPa 0,0 l/m 33,7 km/h (5 Bft) W22.5 260 0 min 1,11 klux 0,00 min 5,0 C -4,1 C
08.11.2006 17:15 6,9 C 6,7 C 86 % 1020 hPa 0,0 l/m 34,2 km/h (5 Bft) W45 265 0 min 223 lux 0,00 min 4,7 C -4,6 C
08.11.2006 17:30 6,7 C 6,5 C 86 % 1020 hPa 0,0 l/m 33,5 km/h (5 Bft) W-SW22.5 250 0 min 49 lux 0,00 min 4,5 C -4,8 C
08.11.2006 17:45 6,6 C 6,5 C 87 % 1020 hPa 0,0 l/m 28,8 km/h (4 Bft) W-SW45 250 0 min 7 lux 0,00 min 4,6 C -3,8 C
08.11.2006 18:00 6,6 C 6,5 C 87 % 1020 hPa 0,0 l/m 27,0 km/h (4 Bft) W-SW22.5 255 0 min 6 lux 0,00 min 4,6 C -3,3 C
08.11.2006 18:15 6,8 C 6,6 C 87 % 1021 hPa 0,0 l/m 35,4 km/h (5 Bft) W-SW22.5 250 0 min 0 lux 0,00 min 4,8 C -5,0 C
08.11.2006 18:30 6,8 C 6,6 C 88 % 1020 hPa 0,0 l/m 36,4 km/h (5 Bft) W-SW22.5 250 0 min 0 lux 0,00 min 5,0 C -5,2 C
08.11.2006 18:45 6,8 C 6,5 C 89 % 1020 hPa 0,0 l/m 35,2 km/h (5 Bft) W-SW45 245 0 min 0 lux 0,00 min 5,1 C -5,0 C
08.11.2006 19:00 6,8 C 6,5 C 90 % 1021 hPa 0,0 l/m 27,6 km/h (4 Bft) W-SW45 250 0 min 0 lux 0,00 min 5,3 C -3,2 C
08.11.2006 19:16 6,7 C 6,5 C 91 % 1021 hPa 0,0 l/m 29,8 km/h (5 Bft) W-SW45 240 0 min 0 lux 0,00 min 5,3 C -3,9 C
08.11.2006 19:30 6,7 C 6,4 C 91 % 1021 hPa 0,0 l/m 26,0 km/h (4 Bft) SW22.5 230 0 min 0 lux 0,00 min 5,3 C -2,9 C
08.11.2006 19:45 6,7 C 6,4 C 92 % 1021 hPa 0,0 l/m 24,0 km/h (4 Bft) W-SW45 245 0 min 0 lux 0,00 min 5,5 C -2,3 C
08.11.2006 20:00 6,7 C 6,4 C 92 % 1021 hPa 0,0 l/m 24,3 km/h (4 Bft) W-SW45 245 0 min 0 lux 0,00 min 5,5 C -2,4 C
08.11.2006 20:15 6,8 C 6,5 C 92 % 1020 hPa 0,0 l/m 26,1 km/h (4 Bft) SW45 235 0 min 0 lux 0,00 min 5,6 C -2,8 C
08.11.2006 20:30 6,8 C 6,6 C 92 % 1021 hPa 0,0 l/m 26,0 km/h (4 Bft) W-SW45 250 0 min 0 lux 0,00 min 5,6 C -2,8 C
08.11.2006 20:45 6,9 C 6,7 C 92 % 1021 hPa 0,3 l/m 31,5 km/h (5 Bft) W-SW45 245 0 min 0 lux 15,00 min 5,7 C -4,1 C
08.11.2006 21:00 7,0 C 6,7 C 92 % 1021 hPa 0,0 l/m 26,2 km/h (4 Bft) W-SW45 245 0 min 0 lux 0,00 min 5,8 C -2,6 C
08.11.2006 21:15 7,1 C 6,8 C 93 % 1021 hPa 0,0 l/m 23,6 km/h (4 Bft) W-SW45 255 0 min 0 lux 0,00 min 6,0 C -1,7 C
08.11.2006 21:30 7,2 C 6,9 C 93 % 1021 hPa 0,0 l/m 25,4 km/h (4 Bft) W-SW45 240 0 min 0 lux 0,00 min 6,1 C -2,1 C
08.11.2006 21:45 7,3 C 7,1 C 93 % 1020 hPa 0,0 l/m 25,7 km/h (4 Bft) W-SW45 245 0 min 0 lux 0,00 min 6,2 C -2,0 C
08.11.2006 22:00 7,4 C 7,2 C 94 % 1020 hPa 0,0 l/m 29,1 km/h (5 Bft) W-SW45 240 0 min 0 lux 0,00 min 6,5 C -2,8 C
08.11.2006 22:15 7,5 C 7,3 C 94 % 1020 hPa 0,0 l/m 29,4 km/h (5 Bft) W-SW45 250 0 min 0 lux 0,00 min 6,6 C -2,7 C
08.11.2006 22:30 7,6 C 7,5 C 94 % 1020 hPa 0,0 l/m 28,1 km/h (4 Bft) W-SW45 255 0 min 0 lux 0,00 min 6,7 C -2,3 C
08.11.2006 22:45 7,7 C 7,6 C 94 % 1020 hPa 0,0 l/m 27,9 km/h (4 Bft) W-SW45 250 0 min 0 lux 0,00 min 6,8 C -2,1 C
08.11.2006 23:00 7,8 C 7,7 C 94 % 1020 hPa 0,3 l/m 30,3 km/h (5 Bft) W-SW45 255 0 min 0 lux 15,00 min 6,9 C -2,5 C
08.11.2006 23:15 7,9 C 7,8 C 94 % 1020 hPa 0,0 l/m 33,6 km/h (5 Bft) W45 265 0 min 0 lux 0,00 min 7,0 C -3,1 C
08.11.2006 23:30 8,0 C 7,8 C 94 % 1020 hPa 0,0 l/m 26,1 km/h (4 Bft) W-SW45 245 0 min 0 lux 0,00 min 7,1 C -1,2 C
08.11.2006 23:45 8,1 C 7,9 C 94 % 1020 hPa 0,0 l/m 26,8 km/h (4 Bft) W-SW45 245 0 min 0 lux 0,00 min 7,2 C -1,2 C
_ Min-Zeit 05:24 05:09 13:15 00:09 - 07:39 - - - - - 05:24 05:39
Minimum _ 0,8 C 0,2 C 81 % 1018 hPa - 11,5 km/h (2 Bft) - - - - - -0,3 C -13,3 C
_ Max-Zeit 14:15 13:00 22:00 18:15 20:45 13:15 - - 10:30 13:00 20:45 23:45 13:45
Maximum _ 9,9 C 12,7 C 94 % 1021 hPa 0,3 l/m 48,9 km/h
W (6 Bft)
- - 15 min 64,8 klux 15,00 min 7,2 C 0,6 C
Durchschnitt _ 5,2 C 5,2 C 90 % 1020 hPa #0,6 l/m 30,0 km/h (5 Bft) W-SW - #3:15 h 11,0 klux #30 min. 3,6 C -5,7 C